TimeEST,TemperatureF,Dew PointF,Humidity,Sea Level PressureIn,VisibilityMPH,Wind Direction,Wind SpeedMPH,Gust SpeedMPH,PrecipitationIn,Events,Conditions,WindDirDegrees,DateUTC
12:00 AM,78,75,88,29.71,,West,4.6,,,,,260,2013-03-05 14:00:00
12:00 AM,77.0,75.2,94,29.71,6.2,West,4.6,-,N/A,,Mostly Cloudy,260,2013-03-05 14:00:00
12:30 AM,78.8,73.4,83,29.71,6.2,West,6.9,-,N/A,,Mostly Cloudy,280,2013-03-05 14:30:00
1:00 AM,78,76,90,29.71,,South,2.3,,,,,170,2013-03-05 15:00:00
1:00 AM,78.8,75.2,89,29.68,6.2,South,2.3,-,N/A,,Mostly Cloudy,170,2013-03-05 15:00:00
1:30 AM,78.8,75.2,89,29.68,6.2,SSE,10.4,-,N/A,,Mostly Cloudy,160,2013-03-05 15:30:00
2:00 AM,80.6,73.4,79,29.68,6.2,South,4.6,-,N/A,,Scattered Clouds,190,2013-03-05 16:00:00
2:30 AM,80.6,73.4,79,29.68,6.2,South,4.6,-,N/A,,Mostly Cloudy,190,2013-03-05 16:30:00
3:00 AM,79,74,80,29.68,,South,5.8,,,,,170,2013-03-05 17:00:00
3:00 AM,78.8,73.4,83,29.68,6.2,South,5.8,-,N/A,,Mostly Cloudy,170,2013-03-05 17:00:00
3:30 AM,78.8,73.4,83,29.65,6.2,South,11.5,-,N/A,,Mostly Cloudy,180,2013-03-05 17:30:00
4:00 AM,79,74,79,29.69,,South,10.4,,,,,180,2013-03-05 18:00:00
4:00 AM,78.8,73.4,83,29.68,6.2,South,10.4,-,N/A,,Scattered Clouds,180,2013-03-05 18:00:00
4:30 AM,78.8,73.4,83,29.68,6.2,South,9.2,-,N/A,,Mostly Cloudy,190,2013-03-05 18:30:00
5:00 AM,78.8,73.4,83,29.68,6.2,South,8.1,-,N/A,,Scattered Clouds,180,2013-03-05 19:00:00
5:30 AM,78.8,73.4,83,29.68,6.2,South,6.9,-,N/A,,Scattered Clouds,180,2013-03-05 19:30:00
6:00 AM,79,74,81,29.71,19,South,8.1,,,,Partly Cloudy,190,2013-03-05 20:00:00
6:00 AM,78.8,73.4,83,29.71,6.2,South,8.1,-,N/A,,Scattered Clouds,190,2013-03-05 20:00:00
6:30 AM,78.8,75.2,89,29.71,5.0,South,6.9,-,N/A,Rain,Light Rain Showers,190,2013-03-05 20:30:00
7:00 AM,79,74,81,29.74,,South,6.9,,,,,190,2013-03-05 21:00:00
7:00 AM,78.8,73.4,83,29.71,5.0,South,6.9,-,N/A,,Scattered Clouds,190,2013-03-05 21:00:00
7:30 AM,78.8,75.2,89,29.74,5.0,South,8.1,-,N/A,Rain,Light Rain Showers,180,2013-03-05 21:30:00
8:00 AM,80.6,75.2,84,29.74,6.2,South,8.1,-,N/A,,Scattered Clouds,170,2013-03-05 22:00:00
8:30 AM,82.4,77.0,84,29.74,6.2,SSE,6.9,-,N/A,,Scattered Clouds,160,2013-03-05 22:30:00
9:00 AM,83,76,75,29.77,19,SE,8.1,,,,Partly Cloudy,140,2013-03-05 23:00:00
9:00 AM,84.2,77.0,79,29.77,6.2,SE,8.1,-,N/A,,Scattered Clouds,140,2013-03-05 23:00:00
9:30 AM,84.2,75.2,74,29.77,6.2,South,6.9,-,N/A,,Scattered Clouds,170,2013-03-05 23:30:00
10:00 AM,85,75,65,29.78,,SSE,11.5,,,,,150,2013-03-06 00:00:00
10:00 AM,86.0,75.2,70,29.77,6.2,SSE,11.5,-,N/A,,Scattered Clouds,150,2013-03-06 00:00:00
10:30 AM,86.0,75.2,70,29.77,6.2,SSE,12.7,-,N/A,,Mostly Cloudy,160,2013-03-06 00:30:00
11:00 AM,84.2,75.2,74,29.74,6.2,South,12.7,-,N/A,,Scattered Clouds,170,2013-03-06 01:00:00
11:30 AM,87.8,77.0,70,29.74,6.2,SSE,13.8,-,N/A,,Scattered Clouds,160,2013-03-06 01:30:00
12:00 PM,86,74,61,29.74,16,South,13.8,,,,Mostly Cloudy,170,2013-03-06 02:00:00
12:00 PM,86.0,75.2,70,29.74,6.2,South,13.8,-,N/A,,Mostly Cloudy,170,2013-03-06 02:00:00
12:30 PM,87.8,75.2,66,29.71,6.2,SSE,12.7,-,N/A,,Mostly Cloudy,160,2013-03-06 02:30:00
1:00 PM,87,75,60,29.71,,ESE,12.7,,,,,120,2013-03-06 03:00:00
1:00 PM,87.8,75.2,66,29.71,6.2,ESE,12.7,-,N/A,,Mostly Cloudy,120,2013-03-06 03:00:00
1:30 PM,87.8,73.4,62,29.68,6.2,SE,13.8,-,N/A,,Mostly Cloudy,140,2013-03-06 03:30:00
2:00 PM,87.8,75.2,66,29.68,6.2,SSE,12.7,-,N/A,,Mostly Cloudy,160,2013-03-06 04:00:00
2:30 PM,87.8,75.2,66,29.65,6.2,SE,17.3,-,N/A,,Mostly Cloudy,140,2013-03-06 04:30:00
3:00 PM,86,75,63,29.66,16,SE,18.4,,,Rain,Light Rain Showers,130,2013-03-06 05:00:00
3:00 PM,86.0,75.2,70,29.65,6.2,SE,18.4,-,N/A,,Mostly Cloudy,130,2013-03-06 05:00:00
3:30 PM,86.0,75.2,70,29.65,6.2,SE,18.4,-,N/A,,Mostly Cloudy,140,2013-03-06 05:30:00
4:00 PM,85,75,64,29.67,,SE,17.3,,,,,140,2013-03-06 06:00:00
4:00 PM,84.2,75.2,74,29.65,6.2,SE,17.3,-,N/A,,Mostly Cloudy,140,2013-03-06 06:00:00
4:30 PM,82.4,75.2,79,29.65,6.2,South,9.2,-,N/A,,Mostly Cloudy,190,2013-03-06 06:30:00
5:00 PM,82.4,75.2,79,29.65,6.2,South,11.5,-,N/A,,Mostly Cloudy,170,2013-03-06 07:00:00
5:30 PM,82.4,75.2,79,29.68,6.2,South,6.9,-,N/A,,Mostly Cloudy,180,2013-03-06 07:30:00
6:00 PM,83,74,68,29.72,16,SSE,11.5,,,,Partly Cloudy,160,2013-03-06 08:00:00
6:00 PM,82.4,73.4,74,29.71,6.2,SSE,11.5,-,N/A,,Mostly Cloudy,160,2013-03-06 08:00:00
6:30 PM,82.4,73.4,74,29.71,6.2,SSE,13.8,-,N/A,,Mostly Cloudy,150,2013-03-06 08:30:00
7:00 PM,82,74,71,29.75,,SSE,12.7,,,,,160,2013-03-06 09:00:00
7:00 PM,82.4,73.4,74,29.74,6.2,SSE,12.7,-,N/A,,Mostly Cloudy,160,2013-03-06 09:00:00
7:30 PM,80.6,75.2,84,29.74,6.2,SSE,12.7,-,N/A,,Mostly Cloudy,160,2013-03-06 09:30:00
8:00 PM,80.6,73.4,79,29.74,6.2,SSE,12.7,-,N/A,,Mostly Cloudy,160,2013-03-06 10:00:00
8:30 PM,80.6,73.4,79,29.77,6.2,South,9.2,-,N/A,,Mostly Cloudy,170,2013-03-06 10:30:00
9:00 PM,80,73,75,29.77,16,South,11.5,,,,Partly Cloudy,180,2013-03-06 11:00:00
9:00 PM,80.6,73.4,79,29.77,6.2,South,11.5,-,N/A,,Mostly Cloudy,170,2013-03-06 11:00:00
9:30 PM,80.6,71.6,74,29.77,6.2,South,10.4,-,N/A,,Mostly Cloudy,170,2013-03-06 11:30:00
10:00 PM,80,72,72,29.80,,South,6.9,,,,,170,2013-03-06 12:00:00
10:00 PM,80.6,73.4,79,29.77,6.2,South,6.9,-,N/A,,Mostly Cloudy,170,2013-03-06 12:00:00
10:30 PM,80.6,73.4,79,29.77,6.2,South,11.5,-,N/A,,Mostly Cloudy,170,2013-03-06 12:30:00
11:00 PM,80.6,73.4,79,29.77,6.2,South,10.4,-,N/A,Rain,Light Rain Showers,170,2013-03-06 13:00:00
11:30 PM,78.8,73.4,83,29.77,6.2,South,5.8,-,N/A,,Mostly Cloudy,180,2013-03-06 13:30:00